CAPE
453 474 580 784 988 1074 776 553 262 249 323 424 267 526 742 781 440 689 783 736 760 622 738 811 744 446 315 0 0 0 0 0 0 0 0 0 0 0 2 0 0 0 0
555 499 456 471 691 799 1087 1270 928 543 461 544 443 103 365 592 475 536 764 995 662 668 621 650 803 372 265 33 0 0 0 0 0 0 0 0 0 0 0 0 0 0 0
866 916 831 741 920 1120 1118 1053 1211 1262 1101 666 468 527 561 708 652 539 532 832 942 741 595 577 622 184 370 116 2 0 0 0 0 0 0 0 0 0 0 0 0 0 0
1082 899 906 1127 1545 1629 1560 1541 1545 1632 1545 1247 805 693 751 785 901 898 742 721 866 851 681 581 565 449 432 153 75 16 0 0 0 0 0 0 0 0 0 0 0 0 0
484 1268 1346 1234 1169 1710 2059 2035 1934 1610 1709 1672 1009 737 714 866 1008 951 984 911 836 785 612 668 565 462 426 209 155 40 0 0 0 0 0 0 0 0 0 0 0 0 0
189 113 974 1381 1408 243 36 712 2012 1913 1581 1507 1173 841 714 958 1085 1074 979 995 884 841 722 469 730 705 533 233 145 129 5 0 0 0 0 0 0 0 0 0 0 0 0
320 393 102 201 0 0 0 2 17 27 792 1475 1553 1143 1016 985 942 829 907 889 1099 1073 994 901 824 1041 805 546 105 102 46 0 0 0 0 0 0 0 0 0 0 0 0
307 312 57 1 0 1 1 0 7 0 0 672 1374 1498 1111 614 75 166 539 173 20 0 1 179 182 86 724 894 722 255 140 16 0 0 0 0 0 0 0 0 0 0 0
299 361 466 25 1 0 0 0 0 0 1 128 205 215 499 248 121 90 0 2 0 3 150 10 0 0 48 856 510 624 413 236 3 0 0 0 0 0 0 0 0 0 0
310 99 46 17 0 0 0 0 0 0 0 7 56 170 387 24 0 0 0 0 0 0 53 2 0 0 0 20 353 754 554 347 21 3 0 0 0 0 0 0 0 0 0
0 199 151 6 0 0 0 0 0 3 0 0 0 3 0 22 18 0 0 0 16 59 195 10 1 0 0 0 0 312 616 530 4 0 0 0 0 0 0 0 0 0 0
0 0 153 427 0 0 0 5 8 4 0 0 346 458 254 0 0 2 3 0 0 435 837 601 54 0 0 99 4 17 42 35 2 2 0 0 0 0 0 0 0 0 0
0 0 16 119 130 319 121 25 319 603 699 758 795 662 278 112 233 292 357 1 56 836 1149 1370 1187 742 277 6 1 1 1 11 0 1 1 1 0 0 0 0 0 0 0
0 0 0 0 0 0 0 327 568 570 566 508 217 160 150 133 118 268 228 1 1 7 148 130 50 49 25 1 1 0 1 1 0 0 1 0 0 0 0 0 0 0 0
0 0 0 0 0 0 0 0 30 723 868 839 616 550 543 341 352 300 293 242 111 7 1 1 1 1 1 0 0 1 1 1 1 0 0 0 0 0 0 0 0 0 0
0 0 0 0 0 2 7 16 22 0 82 689 893 581 349 480 258 22 0 13 1 0 31 41 28 1 0 1 0 0 1 1 0 0 0 0 0 0 0 0 0 0 0
0 0 0 0 0 9 0 0 0 0 0 0 0 0 10 61 0 0 1 1 1 1 311 119 56 7 0 0 0 1 0 1 2 0 0 0 0 0 0 0 0 0 0
0 0 0 0 0 0 0 0 0 0 0 0 0 0 0 0 0 0 1 1 1 1 172 233 63 27 9 5 1 1 1 1 1 1 0 0 0 0 0 0 0 0 0
0 0 0 0 0 0 0 0 0 0 0 0 0 0 0 1 0 2 2 1 24 2 4 78 130 33 34 10 3 1 0 0 0 0 0 0 0 0 0 0 0 0 0
3 3 0 0 0 0 0 1 0 63 20 0 4 0 0 1 0 0 0 0 1 1 8 1 15 3 4 0 6 0 0 0 0 0 0 0 0 0 0 0 0 0 0
0 1 3 5 1 0 0 0 0 0 0 1 1 0 0 0 0 0 0 0 0 1 1 0 2 0 0 0 1 0 0 0 0 0 0 0 0 0 0 0 0 0 0
0 0 0 0 2 3 0 0 0 0 0 0 0 0 0 0 0 0 0 0 0 0 0 1 1 0 0 2 10 2 0 0 2 0 0 0 0 0 0 0 0 0 0
10 11 1 0 0 0 1 0 0 0 0 0 0 0 0 0 0 0 0 0 0 0 0 0 0 0 0 0 4 0 2 0 0 0 0 0 0 0 0 0 0 0 0
9 4 12 15 1 0 0 0 0 0 0 0 0 0 8 11 10 0 0 0 2 13 16 0 0 0 1 0 1 4 3 0 0 0 0 0 0 0 0 0 0 0 0
4 0 13 15 2 0 0 0 0 0 0 0 0 0 0 0 0 2 6 9 11 10 25 24 6 1 0 0 0 3 6 0 0 0 0 0 0 0 0 0 0 0 0
0 0 4 4 4 5 1 3 5 0 0 0 0 0 0 0 0 0 5 11 0 0 0 0 0 0 0 0 0 0 0 0 2 1 0 0 0 0 0 0 0 0 0
CIN
-371 -346 -271 -257 -234 -221 -239 -294 -408 -367 -288 -236 -255 -193 -139 -130 -189 -149 -134 -125 -117 -140 -125 -117 -121 -164 -160 -0 -0 -0 -0 -0 -0 -0 -0 -0 -0 -0 -11 -0 -0 -0 -0
-321 -316 -318 -299 -263 -228 -214 -198 -249 -296 -285 -223 -238 -278 -205 -155 -184 -196 -164 -111 -154 -142 -150 -134 -118 -185 -178 -340 -0 -0 -0 -0 -0 -0 -0 -0 -0 -0 -0 -0 -0 -0 -0
-306 -255 -257 -251 -243 -225 -231 -218 -195 -198 -200 -228 -234 -219 -186 -167 -177 -196 -200 -155 -143 -171 -188 -163 -145 -220 -150 -269 -37 -0 -0 -0 -0 -0 -0 -0 -0 -0 -0 -0 -0 -0 -0
-154 -147 -255 -249 -242 -220 -211 -202 -183 -169 -159 -189 -220 -215 -208 -185 -172 -164 -183 -188 -157 -160 -186 -190 -189 -183 -159 -261 -324 -413 -0 -0 -0 -0 -0 -0 -0 -0 -0 -0 -0 -0 -0
-255 -123 -171 -168 -180 -192 -200 -180 -168 -178 -158 -151 -223 -245 -228 -187 -169 -167 -154 -159 -155 -151 -183 -163 -165 -172 -163 -204 -228 -387 -0 -0 -0 -0 -0 -0 -0 -0 -0 -0 -0 -0 -0
-673 -619 -258 -38 -39 -156 -373 -169 -103 -129 -153 -184 -191 -236 -250 -187 -154 -151 -135 -118 -128 -119 -119 -153 -119 -139 -170 -218 -233 -221 -415 -0 -0 -0 -0 -0 -0 -0 -0 -0 -0 -0 -0
-642 -592 -698 -550 -0 -0 -0 -0 -389 -298 -84 -129 -148 -186 -188 -186 -172 -180 -170 -157 -117 -112 -123 -141 -154 -107 -111 -149 -319 -307 -393 -0 -0 -0 -0 -0 -0 -0 -0 -0 -0 -0 -0
-630 -627 -752 -45 -0 -0 -0 -0 -124 -0 -0 -1 -118 -142 -204 -314 -670 -534 -288 -435 -225 -0 -337 -403 -435 -178 -195 -98 -101 -228 -300 -158 -0 -0 -0 -0 -0 -0 -0 -0 -0 -0 -0
-550 -489 -443 -401 -0 -0 -0 -0 -0 -0 -116 -230 -270 -303 -297 -448 -572 -608 -89 -126 -0 -393 -418 -590 -0 -0 -611 -219 -140 -98 -163 -246 -141 -0 -0 -0 -0 -0 -0 -0 -0 -0 -0
-405 -504 -464 -522 -47 -0 -0 -0 -0 -0 -0 -395 -392 -391 -332 -422 -0 -0 -0 -0 -0 -0 -541 -496 -0 -0 -0 -677 -258 -35 -29 -106 -263 -0 -0 -0 -0 -0 -0 -0 -0 -0 -0
-23 -303 -359 -317 -0 -0 -0 -0 -0 -150 -0 -0 -0 -92 -0 -426 -265 -0 -0 -43 -396 -311 -182 -125 -93 -0 -0 -0 -241 -163 -67 -67 -112 -0 -0 -0 -0 -0 -0 -0 -0 -0 -0
-0 -0 -249 -192 -0 -0 -0 -417 -402 -314 -0 -0 -244 -222 -205 -0 -0 -211 -311 -0 -0 -153 -91 -164 -276 -0 -0 -449 -106 -166 -358 -368 -54 -0 -0 -0 -0 -0 -0 -0 -0 -0 -0
-0 -0 -336 -198 -182 -127 -164 -228 -180 -132 -153 -174 -208 -227 -301 -391 -319 -281 -216 -0 -133 -106 -58 -13 -15 -70 -203 -23 -0 -0 -0 -142 -0 -0 -0 -0 -0 -0 -0 -0 -0 -0 -0
-0 -0 -0 -0 -0 -0 -0 -134 -132 -171 -224 -275 -334 -362 -416 -396 -451 -345 -310 -0 -0 -247 -317 -365 -348 -235 -257 -0 -0 -0 -0 -0 -0 -0 -0 -0 -0 -0 -0 -0 -0 -0 -0
-0 -0 -0 -0 -0 -0 -0 -0 -14 -86 -87 -110 -202 -211 -173 -198 -246 -268 -251 -301 -372 -319 -0 -0 -0 -0 -0 -0 -0 -0 -0 -0 -0 -0 -0 -0 -0 -0 -0 -0 -0 -0 -0
-0 -0 -0 -0 -0 -0 -0 -229 -176 -0 -155 -52 -61 -142 -216 -135 -241 -528 -0 -153 -0 -0 -233 -220 -182 -0 -0 -0 -0 -0 -0 -0 -0 -0 -0 -0 -0 -0 -0 -0 -0 -0 -0
-0 -0 -0 -0 -0 -0 -0 -0 -0 -9 -0 -0 -0 -0 -300 -247 -0 -0 -0 -0 -0 -0 -141 -156 -155 -47 -0 -0 -0 -0 -0 -0 -0 -0 -0 -0 -0 -0 -0 -0 -0 -0 -0
-0 -0 -0 -0 -0 -0 -0 -0 -0 -0 -0 -0 -0 -0 -0 -0 -0 -0 -0 -0 -52 -0 -200 -153 -214 -199 -155 -148 -0 -0 -0 -0 -0 -0 -0 -0 -0 -0 -0 -0 -0 -0 -0
-1 -0 -0 -0 -0 -0 -0 -0 -0 -0 -0 -0 -0 -0 -0 -0 -0 -0 -0 -195 -240 -42 -136 -191 -191 -277 -222 -175 -78 -0 -0 -0 -0 -0 -0 -0 -0 -0 -0 -0 -0 -0 -0
-0 -0 -0 -0 -0 -0 -0 -0 -0 -140 -246 -0 -99 -0 -0 -0 -0 -0 -0 -0 -0 -0 -207 -0 -206 -47 -190 -49 -165 -1 -0 -0 -0 -0 -0 -0 -0 -0 -0 -0 -0 -0 -0
-0 -0 -0 -8 -0 -0 -0 -0 -0 -0 -0 -249 -56 -0 -0 -0 -0 -0 -0 -0 -0 -0 -0 -0 -100 -0 -5 -5 -0 -0 -0 -0 -0 -0 -0 -0 -0 -0 -0 -0 -0 -0 -0
-0 -0 -0 -0 -32 -43 -15 -0 -0 -0 -0 -0 -0 -0 -0 -0 -0 -0 -0 -0 -0 -0 -0 -32 -0 -0 -0 -87 -118 -136 -0 -0 -0 -0 -0 -0 -0 -0 -0 -0 -0 -0 -0
-1 -0 -0 -0 -0 -29 -24 -28 -0 -0 -0 -0 -0 -0 -0 -0 -0 -0 -0 -0 -0 -0 -0 -0 -0 -0 -0 -0 -59 -0 -0 -0 -0 -0 -0 -0 -0 -0 -0 -0 -0 -0 -0
-0 -4 -0 -0 -0 -0 -0 -0 -0 -0 -0 -0 -0 -134 -172 -211 -212 -0 -0 -0 -265 -232 -266 -0 -0 -0 -0 -0 -0 -0 -140 -0 -0 -0 -0 -0 -0 -0 -0 -0 -0 -0 -0
-0 -0 -0 -0 -0 -0 -95 -167 -0 -0 -0 -0 -0 -0 -0 -0 -0 -113 -210 -234 -235 -252 -224 -231 -282 -0 -0 -0 -0 -108 -118 -0 -0 -0 -0 -0 -0 -0 -0 -0 -0 -0 -0
-0 -0 -0 -19 -3 -19 -15 -20 -31 -46 -0 -0 -0 -0 -0 -0 -0 -0 -131 -161 -109 -0 -0 -0 -0 -0 -0 -0 -0 -0 -0 -0 -0 -0 -0 -0 -0 -0 -0 -0 -0 -0 -0
Wind_Speed
13 13 12 11 12 10 10 9 10 7 8 8 8 9 10 10 8 8 7 6 8 6 5 7 7 6 4 3 3 2 3 3 4 2 1 3 4 5 5 5 6 6 5
12 12 14 13 12 11 12 12 8 10 9 10 8 9 8 9 8 10 11 9 9 7 7 5 6 4 6 5 4 5 4 3 4 5 4 2 4 5 5 6 6 5 5
9 11 11 12 11 13 13 11 9 10 10 9 7 10 10 10 10 10 10 10 9 9 8 8 8 7 5 4 5 4 3 3 3 3 4 2 1 3 3 2 3 2 3
8 8 10 12 13 13 13 13 11 11 11 9 10 10 10 11 11 11 10 9 9 8 8 9 8 9 9 8 6 7 5 5 3 3 3 2 2 2 3 4 3 2 3
7 12 14 7 8 11 13 13 12 10 11 10 9 8 8 9 8 10 9 10 9 7 6 6 6 9 12 11 7 7 6 5 4 4 3 3 3 3 9 3 5 3 3
4 7 8 5 6 12 14 14 7 8 9 9 11 12 10 9 12 12 9 8 6 6 5 5 6 12 14 17 17 15 14 10 9 5 4 5 6 5 5 6 5 4 3
1 3 9 12 15 14 14 21 15 10 9 11 11 11 11 7 11 15 14 6 6 6 6 5 6 7 10 10 15 17 18 20 14 13 8 9 6 9 8 6 7 5 5
5 7 9 12 14 15 11 15 19 13 17 13 9 11 10 8 10 10 15 10 8 8 7 6 5 5 6 10 12 12 14 13 15 11 14 13 10 9 12 14 14 8 2
6 8 10 11 12 9 9 11 8 10 22 14 3 5 9 10 18 23 13 6 7 8 7 6 8 9 12 11 12 14 13 14 11 13 11 8 10 12 13 6 5 5 4
6 6 4 5 6 6 14 17 21 15 15 8 5 7 9 9 12 5 10 4 6 6 4 7 6 7 13 11 12 15 13 16 11 8 8 7 9 9 13 13 10 11 6
5 7 7 4 4 5 8 10 16 19 14 9 8 7 8 8 6 6 11 6 6 7 7 8 3 10 26 15 15 17 19 13 13 10 8 8 8 8 9 10 9 10 9
5 6 7 5 4 5 10 12 15 15 13 9 7 5 8 7 11 10 14 16 11 9 8 7 8 22 17 15 14 23 16 9 8 9 11 11 10 11 9 8 11 9 8
7 5 6 6 5 5 9 12 9 11 10 7 6 5 5 5 5 14 15 16 17 11 7 8 9 12 18 15 17 17 14 8 8 9 9 9 10 9 8 6 6 7 5
7 7 3 4 6 5 4 5 5 5 5 5 5 5 5 5 6 6 6 7 7 6 1 2 4 5 8 6 4 6 7 8 10 10 9 7 5 7 8 8 6 4 4
9 9 9 4 5 5 6 5 5 5 6 5 7 6 5 5 5 8 8 6 7 8 6 2 1 2 2 3 3 4 5 6 7 7 6 7 7 7 7 5 4 4 7
8 8 8 9 9 5 5 7 11 15 15 18 15 12 8 9 5 5 8 6 5 17 4 5 5 4 5 5 5 5 5 9 8 8 8 8 8 8 8 4 4 5 8
6 7 7 8 7 6 4 4 6 3 8 12 14 16 13 7 6 1 2 5 14 14 5 6 7 6 7 7 7 7 8 9 8 7 8 8 8 7 8 7 7 6 8
7 9 6 7 7 6 4 3 2 3 4 7 8 11 10 2 4 6 10 9 3 3 5 7 8 7 7 7 8 7 7 5 7 7 8 8 9 8 8 8 8 9 8
10 8 8 7 7 8 8 6 5 5 3 2 7 8 3 4 7 8 12 4 4 4 5 6 8 6 7 7 7 7 8 7 8 7 7 8 9 9 9 10 9 12 11
9 14 13 8 7 6 6 9 9 9 7 6 4 5 4 5 3 4 3 4 4 4 5 8 8 5 6 7 7 6 7 7 8 8 8 8 8 9 10 10 10 10 10
5 7 15 8 6 7 7 8 7 5 4 1 5 4 13 7 4 3 3 4 3 4 6 8 8 7 6 6 7 7 8 8 9 9 9 9 9 9 9 9 10 11 11
5 6 7 7 7 6 6 6 4 4 3 3 4 3 9 4 2 2 2 3 4 5 5 7 7 7 7 8 8 8 9 9 10 9 9 9 9 9 9 9 10 10 11
7 8 7 7 5 6 4 5 5 3 4 3 3 4 4 3 2 1 2 3 4 4 5 6 7 7 7 8 8 8 9 10 9 8 9 9 9 9 10 9 10 9 11
8 9 10 7 6 4 4 6 4 5 4 4 4 3 1 1 2 3 3 4 4 5 5 6 7 10 10 10 8 9 9 9 7 9 12 10 10 10 9 8 9 12 10
10 11 10 10 6 4 5 5 5 5 5 5 4 3 3 3 4 4 4 4 4 4 6 6 7 10 13 15 13 13 12 13 11 9 8 12 12 13 12 10 10 9 9
9 12 10 9 9 7 5 5 6 5 4 4 4 4 3 3 4 4 4 4 3 4 6 5 6 9 13 11 15 16 13 14 12 13 10 10 11 10 10 12 14 10 12
Wind_Direction
195 199 200 210 215 210 216 215 200 200 208 219 205 186 195 201 191 190 187 185 195 196 201 196 201 186 212 196 161 145 172 169 167 299 207 203 163 163 181 153 173 164 189
209 203 204 203 212 223 221 221 193 200 208 217 220 213 192 204 195 199 196 197 198 198 204 204 214 171 202 200 181 192 194 197 147 186 185 201 186 199 175 159 177 182 180
198 205 215 214 207 212 221 227 216 212 206 210 212 214 210 202 192 204 202 200 197 199 190 192 208 180 207 201 194 184 194 195 192 154 192 171 163 161 124 127 171 168 179
344 277 226 209 202 215 221 213 204 208 212 206 209 216 215 205 199 197 198 200 208 206 200 202 203 185 194 199 199 202 182 185 189 178 194 187 158 193 157 167 178 179 179
187 219 228 225 267 242 218 217 213 205 210 203 198 209 211 204 205 200 202 204 206 206 201 204 205 206 206 198 190 205 187 182 188 186 191 172 173 151 200 169 192 151 202
253 262 274 130 258 6 358 327 260 198 194 194 204 201 194 210 209 199 198 201 200 202 211 226 231 210 213 204 204 200 193 193 200 183 195 196 204 199 169 181 168 145 220
116 9 107 109 103 100 29 1 322 338 314 215 205 195 205 195 171 175 177 172 170 175 188 207 217 237 230 221 219 215 205 201 194 199 195 205 189 194 170 169 190 181 202
175 162 136 125 119 113 122 53 310 341 301 280 217 205 177 162 170 190 174 167 163 183 198 206 207 242 236 230 236 225 225 217 213 209 214 207 203 184 188 192 197 194 66
203 211 187 172 149 126 139 124 220 245 266 258 218 205 197 189 183 189 170 184 175 194 206 184 215 216 211 207 241 241 239 237 232 227 225 208 205 193 193 159 162 155 212
294 291 285 224 170 156 159 181 202 240 259 270 234 219 252 236 243 186 151 189 219 231 222 221 266 270 224 178 223 249 252 246 216 205 220 220 211 209 201 203 185 204 202
283 299 280 261 237 192 212 195 218 245 254 245 233 219 226 234 264 159 167 189 205 208 213 240 201 272 263 269 243 248 242 239 212 213 210 209 204 204 200 207 203 202 210
284 291 299 286 252 232 233 232 228 230 218 213 211 202 216 214 207 216 221 204 219 222 206 211 213 247 265 228 240 243 242 214 192 203 191 205 208 213 207 206 214 210 221
310 271 241 271 252 235 214 233 226 219 217 213 194 197 205 206 214 206 218 211 211 215 204 192 204 226 249 258 249 237 213 199 185 190 207 219 215 213 201 186 186 199 211
302 304 254 226 257 278 260 260 238 234 233 190 194 224 217 213 207 190 179 174 193 222 280 247 222 210 215 237 231 223 212 194 193 196 200 203 179 177 191 194 206 173 188
331 318 315 297 213 229 239 237 250 254 231 224 222 214 206 242 242 203 199 178 175 185 153 132 227 237 214 221 216 230 206 193 191 195 190 185 182 185 195 177 183 174 201
318 317 321 319 320 311 295 285 240 238 251 243 230 213 226 216 196 208 212 199 157 151 153 182 206 212 216 209 213 215 219 211 208 194 197 196 194 188 185 173 176 182 201
280 296 309 309 305 310 340 1 343 292 276 256 259 259 234 178 166 0 308 151 168 162 173 182 200 202 212 214 205 205 220 215 217 211 205 197 199 197 178 187 191 189 201
276 260 267 276 280 269 244 226 164 321 308 317 277 268 235 184 166 168 140 121 117 257 205 201 208 199 205 214 209 209 212 200 211 216 213 211 205 198 192 198 195 192 194
303 294 291 281 277 266 258 231 219 185 197 302 17 242 68 131 162 132 164 152 178 215 241 245 238 204 199 206 216 203 208 205 203 201 207 212 216 199 202 203 195 189 180
305 298 299 298 284 271 252 243 243 231 165 157 221 292 31 315 220 184 172 173 184 208 234 244 240 226 219 204 235 214 206 211 206 207 213 211 207 201 215 204 198 189 194
307 293 288 279 257 267 270 259 250 256 271 246 174 204 230 229 196 160 176 168 189 225 243 247 238 223 219 220 219 214 218 220 222 214 213 213 209 207 211 209 205 200 194
276 274 285 290 293 288 275 261 236 250 243 214 233 217 233 243 226 213 212 216 205 209 224 233 236 227 224 229 221 216 217 219 226 217 213 213 214 210 204 200 205 201 194
315 312 300 290 281 291 289 294 285 270 272 240 245 248 222 256 246 297 282 254 227 227 224 213 233 244 235 221 216 218 224 227 222 214 215 211 208 207 197 195 198 197 193
334 336 335 312 291 297 305 312 303 273 268 258 243 265 287 192 187 206 220 240 243 241 235 224 222 231 243 235 220 219 223 230 225 213 207 209 206 201 198 196 196 200 198
354 354 350 351 354 339 340 342 336 334 332 327 323 323 335 332 317 288 260 259 267 272 265 257 248 246 234 233 231 221 221 205 215 218 201 206 209 203 199 199 193 198 195
359 10 0 1 7 10 5 347 328 302 301 305 297 286 285 288 271 271 289 305 299 293 287 273 264 252 258 254 243 233 221 213 214 214 205 204 203 201 199 201 198 195 200